STARLINK-35406, 65795

Orbit data source: Space-Track

STARLINK-35406, 65795 is a payload satellite owned by SpaceX/Seattle (US) in SSO that was launched on Fri, 26 Sep 2025 UTC via an FALCON 9 launch vehicle from the Air Force Western Test Range (AFWTR). Payload-class satellites include a variety of spacecraft equipped with specific instruments for various scientific and technological missions. These include communications satellites like Starlink; space stations such as the ISS; scientific satellites like the Hubble; Earth observation satellites from companies like Planet Labs, Umbra, and HawkEye 360; GPS; miniature CubeSats for education and research; and military/defense satellites.

Loading next visibility...
Identifier
65795, 2025-218E
Orbit
SSO
Country
Flag of USUS
Related business
Manufacturer
SpaceX/Seattle
Mission
Operational Commercial Communications
Bus & Motor
STARLINK V2MO, Unknown motor
Mass
575 kg wet, ~530 kg dry
Launch date (UTC)
2025-09-26 (2 months ago)
Launch vehicle
FALCON 9
Launch site
Air Force Western Test Range (AFWTR)
Object type
Payload
Rocket body
Debris
Shape & HBR
Box + 2 Pan, 17.7 m
Radar Cross Section
36.964 m²

Expand to show TLE details & history
Last TLE update: 15 hours ago

TLE from 15 hours ago
0 STARLINK-35406
1 65795U 25218E   25340.61968649  .00009436  00000-0  65719-3 0  9996
2 65795  97.6025 201.1896 0002318  89.3950 270.7542 15.05656273 10961
Epoch: 2025-12-06T14:52Z
TLE epoch observation values (Epoch: 2025-12-06T14:52:20.912Z)
Latitude
-0.00008°
Longitude
-97.54234°
Altitude
552.536 km
Speed
7.586 km/s
True Right ascension
13h 24m 45s
True Declination
0° 00' 00"
Sunlit
Object was in daylight at epoch
Visualization orbit readout
Latitude
Unknown
Longitude
Unknown
Altitude
Unknown
Speed
Unknown
Apparent Right ascension
Unknown
Apparent Declination
Unknown
Sunlit
N/A
Visualization observer readout
Local Sidereal Time
03:28:57
Azimuth
Unknown
Elevation
Unknown
Doppler factor
Unknown
Orbital elements
Apogee altitude
548.09 km
Perigee altitude
544.88 km
Semi-major axis
6,924.622 km
Eccentricity
0.00023
Inclination
97.6025°
RAAN
201.1896°
Arg. of periapsis
89.395°
True anomaly
270.72764°
Mean anomaly
270.7542°
Eccentric anomaly
270.74092°
Mean motion
3.7666 °/min
Orbital period
95.58 mins
BSTAR
0.00065719
Loading maneuver chart data...
Computing Atmospheric mass density...
Loading historical data...
Loading historical data...
Loading historical data...
Loading historical data...
Loading historical data...
Loading historical data...
Loading historical data...

Documentation

Showing up to 5 results
|